Weather Service Report


967 
ASUS44 KJAN 251710
RWRMS 

MISSISSIPPI HOURLY WEATHER ROUNDUP
NATIONAL WEATHER SERVICE JACKSON MS
1200 PM CDT WED MAY 25 2016

NOTE: "FAIR: INDICATES FEW OR NO CLOUDS BELOW 12,000 FEET WITH NO
SIGNIFICANT WEATHER AND/OR OBSTRUCTIONS TO VISIBILITY.

MSZ001>002-007>008-010>013-018>021-025>028-034>036-251800-
NORTHWEST MISSISSIPPI
  
CITY           SKY/WX    TMP DP  RH WIND       PRES   REMARKS
BATESVILLE     PTSUNNY   82  70  67 S8        30.12S                  
CLARKSDALE     MOSUNNY   84  72  65 S7G15     30.09F                  
CLEVELAND      PTSUNNY   85  72  64 S15       30.09F HX  91           
GREENWOOD      PTSUNNY   83  68  60 S13       30.11F                  
GREENVILLE     MOSUNNY   84  71  65 SW12      30.09F                  
OLIVE BRANCH   CLOUDY    79  75  89 S10       30.12R                  
OXFORD         FAIR      82  68  61 S8        30.13F                  
TUNICA         CLOUDY    79  72  78 S8        30.10F                  
WINONA         FAIR      81  68  65 S7        30.13F                  
$$

MSZ003>006-009-014>017-022>024-029>033-037>039-251800-
NORTHEAST MISSISSIPPI
  
CITY           SKY/WX    TMP DP  RH WIND       PRES   REMARKS
COLUMBUS AFB   MOSUNNY   83  66  56 S9        30.15F                  
CORINTH        FAIR      84  57  39 SW10G20   30.13S                  
GOLDN TRIANGLE MOSUNNY   82  63  51 S12       30.16F                  
STARKVILLE     FAIR      82  64  54 S8        30.15F                  
TUPELO         CLOUDY    85  56  37 SE13G18   30.13F                  
$$

MSZ040-058-251800-
CENTRAL MISSISSIPPI
  
CITY           SKY/WX    TMP DP  RH WIND       PRES   REMARKS
JACKSON INTL   PTSUNNY   82  69  64 S12       30.15S                  
JACKSON HAWKNS MOSUNNY   82  69  64 S10       30.15F                  
MADISON        PTSUNNY   79  68  69 S6        30.15F                  
MERIDIAN KEY   PTSUNNY   79  68  69 SW8       30.17F                  
MERIDIAN NAS   CLOUDY    84  59  42 S5        30.18S                  
VICKSBURG TVR  MOSUNNY   85  70  60 S8        30.11F                  
VICKSBURG VKS  PTSUNNY   84  70  61 S10       30.12S HAZE             
$$

MSZ059>079-251800-
SOUTH MISSISSIPPI
  
CITY           SKY/WX    TMP DP  RH WIND       PRES   REMARKS
BROOKHAVEN     FAIR     N/A N/A N/A S9        30.16S                  
COLUMBIA       PTSUNNY   82  72  69 VRB7      30.19F                  
HATTIESBURG    PTSUNNY   84  69  60 SW8       30.17F                  
MCCOMB         MOSUNNY   83  68  60 S8        30.14F                  
NATCHEZ        PTSUNNY   82  72  69 S8        30.13S                  
PINE BELT      MOSUNNY   82  66  57 S5        30.18F                  
$$

MSZ080>082-251800-
COASTAL MISSISSIPPI
  
CITY           SKY/WX    TMP DP  RH WIND       PRES   REMARKS
BAY ST LOUIS   PTSUNNY   82  66  57 S12       30.17S                  
BILOXI         CLOUDY    82  71  69 SE9G16    30.18S                  
PASCAGOULA     MOSUNNY   82  67  60 S7        30.18F                  
GULFPORT       PTSUNNY   82  70  66 SE13      30.17S                  
$$
  

Return to Home page


Western Regional Climate Center, wrcc@dri.edu